Date,TemperatureHighF,TemperatureAvgF,TemperatureLowF,DewpointHighF,DewpointAvgF,DewpointLowF,HumidityHigh,HumidityAvg,HumidityLow,PressureMaxIn,PressureMinIn,WindSpeedMaxMPH,WindSpeedAvgMPH,GustSpeedMaxMPH,PrecipitationSumIn
2013-2-1,26,18,10,7,-6,-15,44,33,28,29.94,29.33,36,14,36,0.00
2013-2-2,26,14,6,5,-11,-19,55,32,23,30.10,29.33,27,6,27,0.00
2013-2-3,29,20,10,9,5,-19,64,53,26,30.09,29.16,21,4,21,0.00
2013-2-4,27,19,12,5,0,-12,65,45,24,29.63,29.33,33,10,33,0.00
2013-2-5,21,11,0,-3,-14,-18,50,32,21,29.96,29.84,19,4,19,0.00
2013-2-6,36,20,11,15,-1,-16,59,39,23,30.18,29.84,24,7,24,0.00
2013-2-7,15,6,0,-12,-20,-27,47,28,21,30.51,30.19,21,6,21,0.00
2013-2-8,12,6,2,-2,-12,-24,61,43,26,30.54,29.99,27,8,27,0.00
2013-2-9,16,11,8,8,2,-3,71,65,54,30.03,29.75,40,17,40,0.00
2013-2-10,36,19,4,6,-4,-11,70,37,21,30.12,29.58,27,11,27,0.00
2013-2-11,31,14,-3,27,2,-16,86,61,43,29.96,29.21,4,1,4,0.00
2013-2-12,43,35,29,33,27,23,86,74,60,29.36,29.15,28,4,28,0.22
2013-2-13,42,35,27,25,20,13,74,54,35,29.42,29.35,22,4,22,0.00
2013-2-14,40,29,20,20,16,10,70,59,33,29.63,29.40,22,3,22,0.00
2013-2-15,44,26,19,28,16,9,77,66,52,29.63,29.55,12,1,12,0.00
2013-2-16,50,30,24,26,21,5,83,71,43,29.62,29.39,20,4,20,0.02
2013-2-17,43,21,16,27,7,-3,72,55,42,29.69,28.78,53,16,53,0.02
2013-2-18,49,19,11,20,-4,-10,75,37,22,29.73,28.98,48,22,48,0.01
2013-2-19,51,28,11,31,6,-10,84,44,21,29.95,29.53,12,4,12,0.34
2013-2-20,44,34,24,38,25,10,90,71,48,29.53,29.24,24,8,24,0.50
2013-2-21,31,26,19,21,11,1,69,53,45,30.01,29.47,26,10,26,0.00
2013-2-22,49,30,14,21,15,8,79,56,27,30.26,30.02,21,5,21,0.00
2013-2-23,36,25,17,24,17,10,85,72,53,30.19,29.94,7,2,7,0.00
2013-2-24,32,29,25,26,22,18,83,77,70,29.94,29.70,14,4,14,0.00
2013-2-25,46,29,20,27,22,15,82,76,41,30.17,29.83,8,0,8,0.17
2013-2-26,56,37,22,32,23,17,84,60,25,30.23,30.16,11,1,11,0.00
2013-2-27,42,26,18,26,18,11,84,72,50,30.16,29.65,21,4,21,0.00
2013-2-28,37,32,29,31,28,25,86,83,76,29.66,29.45,19,6,19,0.12